{"data":{"norad_id":68094,"intl_designator":"2026-042AB","name":"STARLINK-36787","alt_names":[],"object_type":"PAYLOAD","status":"ACTIVE","operator":null,"country":"US","launch_date":"2026-03-04","launch_site_code":"AFETR","launch_vehicle":null,"mission":null,"orbit_class":"UNKNOWN","rcs_meters":null,"size_class":null,"mass_kg":null,"dimensions":null,"purposes":["comms"],"wikipedia_slug":null,"has_3d_model":false,"image_url":null,"decayed_at":null,"tle_current":{"epoch":"2026-05-24T19:37:30.793728Z","epoch_age_seconds":84659,"freshness":"FRESH","line1":"1 68094U 26042AB  26144.81771752  .00015843  00000+0  47932-3 0  9994","line2":"2 68094  53.1576 184.1910 0001212  87.6507 272.4635 15.34381490 13965","mean_motion":15.3438149,"eccentricity":0.0001212,"inclination_deg":53.1576,"raan_deg":184.191,"arg_perigee_deg":87.6507,"mean_anomaly_deg":272.4635,"bstar":0.00047932,"rev_number":1396,"period_min":93.848890213085,"perigee_km":461.9291398759,"apogee_km":463.58737288605,"semimajor_km":6840.895256381,"source":"CELESTRAK","updated_at":"2026-05-25T13:38:21.839534Z"}}}